Regional Weather Roundup
Issued by NWS

Home | Current Version | Previous Version | Text Only | Print | Product List | Glossary On
Versions: 1 2 3 4 5 6 7 8 9 10 11 12 13 14 15 16 17 18 19 20 21 22 23 24 25 26 27 28 29 30 31 32 33 34 35 36 37 38 39 40 41 42 43 44 45 46 47 48 49 50
000
ASUS43 KLSX 220859
RWRMO

WEATHER SUMMARY FOR MISSOURI
NATIONAL WEATHER SERVICE SPRINGFIELD MO
400 AM CDT MON SEP 22 2014

NOTE: "FAIR" INDICATES FEW OR NO CLOUDS BELOW 12,000 FEET WITH NO
       SIGNIFICANT WEATHER AND/OR OBSTRUCTIONS TO VISIBILITY.
       CURRENT SKY AND/OR WEATHER CONDITIONS ARE NOT AVAILABLE FOR
       CHILLICOTHE AND FARMINGTON.

MOZ001>031-035>038-043-044-053-054-221000-
...NORTHERN AND WESTERN MISSOURI...

CITY           SKY/WX    TMP DP  RH WIND       PRES   REMARKS
KANSAS CTY INT CLEAR     53  48  83 N6        30.27S
KANSAS C DTWN  CLEAR     54  51  90 NW5       30.27S
LEE`S SUMMIT   CLEAR     55  49  80 N3        30.27S
ST JOSEPH      CLEAR     44  43  96 CALM      30.29R
KIRKSVILLE     CLEAR     47  45  93 W5        30.26R

$$
MOZ066>068-077>081-088>096-101>105-221000-
...SOUTHWEST MISSOURI...

CITY           SKY/WX    TMP DP  RH WIND       PRES   REMARKS
SPRINGFIELD    CLEAR     52  47  83 CALM      30.23R
JOPLIN         CLEAR     52  50  93 CALM      30.24S

$$
MOZ032>034-039>042-045>050-055>058-069>072-221000-
...CENTRAL MISSOURI...

CITY           SKY/WX    TMP DP  RH WIND       PRES   REMARKS
COLUMBIA       CLEAR     51  49  92 NW5       30.23S
JEFFERSON CITY CLEAR     52  49  89 NW5       30.23S
ROLLA          CLEAR     50  48  93 CALM      30.21R
SEDALIA        CLEAR     52  48  86 NW5       30.25S
OSAGE BEACH    CLEAR     52  46  82 CALM      30.23S

$$
MOZ051-052-059>065-221000-
...EAST CENTRAL MISSOURI...

CITY           SKY/WX    TMP DP  RH WIND       PRES   REMARKS
ST LOUIS INTL  CLEAR     56  50  80 NW5       30.20R
SPIRIT OF STL  CLEAR     50  49  96 CALM      30.20R
ST CHARLES     CLEAR     56  50  80 N7        30.20R

$$
MOZ072>076-082>087-097>100-106>115-221000-
...SOUTH CENTRAL AND SOUTHEAST MISSOURI...

CITY           SKY/WX    TMP DP  RH WIND       PRES   REMARKS
CAPE GIRARDEAU CLEAR     52  49  89 W5        30.17R
FARMINGTON     CLEAR     50  46  87 NW3       30.21R
POPLAR BLUFF   CLEAR     55  49  80 N5        30.17R
WEST PLAINS    CLEAR     53  47  79 N5        30.22S

$$



USA.gov is the U.S. government's official web portal to all federal, state and local government web resources and services.